TimeEST,TemperatureF,Dew PointF,Humidity,Sea Level PressureIn,VisibilityMPH,Wind Direction,Wind SpeedMPH,Gust SpeedMPH,PrecipitationIn,Events,Conditions,WindDirDegrees,DateUTC
12:57 AM,36.0,34.0,93,30.36,5.0,NW,3.5,-,N/A,,Clear,310,2012-12-01 05:57:00
2:57 AM,34.0,33.1,96,30.38,7.0,Calm,Calm,-,N/A,,Clear,0,2012-12-01 07:57:00
3:57 AM,36.0,34.0,93,30.37,7.0,Calm,Calm,-,N/A,,Clear,0,2012-12-01 08:57:00
4:57 AM,34.0,33.1,96,30.37,8.0,Calm,Calm,-,N/A,,Clear,0,2012-12-01 09:57:00
5:57 AM,35.1,33.1,92,30.38,7.0,Calm,Calm,-,N/A,,Clear,0,2012-12-01 10:57:00
7:57 AM,39.9,39.0,97,30.41,7.0,Calm,Calm,-,N/A,,Clear,0,2012-12-01 12:57:00
8:57 AM,51.1,44.1,77,30.43,10.0,Calm,Calm,-,N/A,,Clear,0,2012-12-01 13:57:00
9:57 AM,57.0,42.1,57,30.43,10.0,Calm,Calm,-,N/A,,Clear,0,2012-12-01 14:57:00
11:57 AM,60.1,41.0,49,30.40,10.0,SE,8.1,-,N/A,,Clear,140,2012-12-01 16:57:00
12:57 PM,61.0,42.1,50,30.38,10.0,SE,4.6,-,N/A,,Clear,140,2012-12-01 17:57:00
1:57 PM,60.1,44.1,55,30.37,10.0,SE,6.9,-,N/A,,Clear,130,2012-12-01 18:57:00
2:57 PM,59.0,46.0,62,30.36,10.0,ESE,5.8,-,N/A,,Clear,120,2012-12-01 19:57:00
3:57 PM,57.0,44.1,62,30.36,10.0,ESE,6.9,-,N/A,,Clear,110,2012-12-01 20:57:00
5:57 PM,48.0,44.1,86,30.38,10.0,Calm,Calm,-,N/A,,Clear,0,2012-12-01 22:57:00
6:57 PM,45.0,43.0,93,30.40,9.0,Calm,Calm,-,N/A,,Clear,0,2012-12-01 23:57:00
7:57 PM,43.0,41.0,93,30.41,9.0,Calm,Calm,-,N/A,,Clear,0,2012-12-02 00:57:00
8:57 PM,43.0,41.0,93,30.42,9.0,Calm,Calm,-,N/A,,Clear,0,2012-12-02 01:57:00
9:57 PM,42.1,39.9,92,30.41,8.0,Calm,Calm,-,N/A,,Clear,0,2012-12-02 02:57:00
10:57 PM,41.0,39.0,93,30.42,7.0,Calm,Calm,-,N/A,,Clear,0,2012-12-02 03:57:00
11:57 PM,39.9,39.0,97,30.42,7.0,Calm,Calm,-,N/A,,Clear,0,2012-12-02 04:57:00